Regional Weather Roundup
Issued by NWS Jackson, KY

Home | Current Version | Previous Version | Text Only | Print | Product List | Glossary Off
Versions: 1 2 3 4 5 6 7 8 9 10 11 12 13 14 15 16 17 18 19 20 21 22 23 24 25 26 27

000
ASUS43 KJKL 020510
RWRJKL

EAST KENTUCKY HOURLY WEATHER ROUNDUP
NATIONAL WEATHER SERVICE JACKSON KY
100 AM EDT MON MAY 02 2016

NOTE: "FAIR" INDICATES FEW OR NO CLOUDS BELOW 12,000 FEET WITH
NO SIGNIFICANT WEATHER AND/OR OBSTRUCTIONS TO VISIBILITY.

* THESE REPORTS ARE NOT UNDER NWS QUALITY CONTROL AND MAY NOT
  REPORT WEATHER SUCH AS PRECIPITATION AND FOG.

KYZ079-080-083-085-087-088-110-112-115-119-120-020600
...EASTERN KENTUCKY...

CITY           SKY/WX    TMP DP  RH WIND       PRES   REMARKS
JACKSON        CLEAR     62  59  90 CALM      29.96F
LONDON         CLEAR     64  60  87 CALM      29.97S
SOMERSET*      PTCLDY    64  63  94 CALM      29.98R
MONTICELLO*    PTCLDY    68  62  81 SW15      29.99R
WILLIAMSBURG*  CLEAR     59  57  94 SW5       29.98S
MIDDLESBORO*   CLEAR     62  62  99 CALM      29.99S
HARLAN APT*    CLOUDY    59  59 100 CALM      30.00F
HAZARD APT*    MOCLDY    63  63 100 CALM      29.97S
BLACK MTN*       N/A     59  59 100 SW5         N/A
BIG SANDY APT* PTCLDY    62  60  94 S5        29.96F
MOREHEAD APT*  MOCLDY    61  59  94 SE6       29.95R
$$

KYZ035-036-041-042-044-050-067-078-099-020600
...CENTRAL KENTUCKY...

CITY           SKY/WX    TMP DP  RH WIND       PRES   REMARKS
MT STERLING*   CLOUDY    61  61 100 SW7       29.95S
FLEMING/MASON* MOCLDY    60  60  97 S10       29.92S
DANVILLE*      PTCLDY    61  59  94 CALM      29.95S
RICHMOND*      MOCLDY    64  59  82 S5        29.94S
LEXINGTON      PTCLDY    64  59  83 S8        29.93R
FRANKFORT      PTCLDY    64  59  83 S6        29.91R
LOUISVILLE     PTCLDY    69  63  81 SW10      29.89R
LEBANON*         N/A     68  63  83 S8        29.94S
BOWLING GREEN  CLEAR     68  61  78 SW8       29.95R
$$

KYZ091>093-OHZ055-061-077-WVZ005-015-034-035-042-020600
...SOUTHERN OHIO/WEST VIRGINIA...

CITY           SKY/WX    TMP DP  RH WIND       PRES   REMARKS
COVINGTON      CLOUDY    62  60  93 S6        29.87F
COLUMBUS       CLOUDY    61  60  97 SE5       29.86S
DAYTON         TSTM      61  58  90 SW16G23   29.92R
WILMINGTON     LGT RAIN  61  58  90 S10       29.86F FOG
HUNTINGTON       N/A     60  58  92 S9        29.91F
CHARLESTON       N/A     60  58  92 CALM      29.92F
PINEVILLE*     MOCLDY    60  57  90 MISG      30.03F FOG
BECKLEY        MOCLDY    57  55  93 CALM      30.00F
$$

VAZ002-007-008-TNZ017-027-036-066-071-020600
...SOUTHWEST VIRGINIA/EAST TENNESSEE...

CITY           SKY/WX    TMP DP  RH WIND       PRES   REMARKS
WISE*          FOG       57  57 100 CALM      30.03F VSB<1/4
BRISTOL        PTCLDY    67  62  84 SW9       29.99F
MORRISTOWN*    CLOUDY    68  64  88 W9        29.99S
SEVIERVILLE*   CLEAR     66  61  82 W3        29.98S
KNOXVILLE      CLEAR     69  64  84 SW8       29.99S
OAK RIDGE      PTCLDY    68  63  84 CALM      30.01R
CROSSVILLE     CLEAR     67  60  78 VRB3      30.03R
NASHVILLE      CLEAR     67  62  84 S5        29.97F
$$

...KEY TO REMARKS...
VSB - VISIBILITY IN MILES
WCI - WIND CHILL INDEX
HX  - HEAT INDEX

$$




USA.gov is the U.S. government's official web portal to all federal, state and local government web resources and services.